Barcelona, Spain

10:51 PM CET on February 24, 2018 (GMT +0100)
El Prat

Weather History for LEBL - February, 2018

Change the Weather History Date:

Tuesday, February 6, 2018

  Actual Average Record
Temperature  
Mean Temperature 48 °F -  
Max Temperature 52 °F 56 °F 66 °F (2011)
Min Temperature 44 °F 42 °F 32 °F (2012)
Degree Days  
Heating Degree Days 17    
Moisture  
Dew Point 42 °F    
Average Humidity 78    
Maximum Humidity 100    
Minimum Humidity 51    
Precipitation  
Precipitation 0.28 in 0.05 in - ()
Sea Level Pressure  
Sea Level Pressure 29.74 in    
Wind  
Wind Speed 6 mph ()    
Max Wind Speed 14 mph    
Max Gust Speed -    
Visibility 8.8 miles    
Events Rain    
Averages and records for this station are not official NWS values.
T = Trace of Precipitation, MM = Missing Value Source: Averaged Metar Reports

Daily Weather History Graph

Daily Weather History Graph

Search for Another Location

Airport or City:

Trip Planner

Search our weather history database for the weather conditions in past years. The results will help you decide how hot, cold, wet, or windy it might be!

Date:

Astronomy

Feb. 06, 2018 Rise Set
Actual Time 7:57 AM CET 6:14 PM CET
Civil Twilight 7:28 AM CET 6:43 PM CET
Nautical Twilight 6:56 AM CET 7:15 PM CET
Astronomical Twilight 6:23 AM CET 7:48 PM CET
Moon No Moon Rise 11:28 AM CET (2/6)
Length of Visible Light 11h 14m
Length of Day
10h 16m
Waning Gibbous, 62% of the Moon is Illuminated
Feb 6
Waning Gibbous
Feb 7
Last Quarter
Feb 15
New
Feb 23
First Quarter
Mar 2
Full

Hourly Weather History & Observations

Time (CET) Temp. Windchill Dew Point Humidity Pressure Visibility Wind Dir Wind Speed Gust Speed Precip Events Conditions
12:00 AM 48 °F - 46 °F 88% 29.78 in 7 mi NW 6.9 mph - - Rain Rain
12:00 AM 48.2 °F - 44.6 °F 87% 29.77 in 6.2 mi West 4.6 mph - N/A Rain Light Rain
12:30 AM 46.4 °F 44.3 °F 44.6 °F 93% 29.77 in 6.2 mi NNW 4.6 mph - N/A Rain Light Rain
1:00 AM 48 °F - 46 °F 88% 29.78 in 19 mi NNE 6.9 mph - - Rain Light Rain
1:00 AM 46.4 °F 44.3 °F 44.6 °F 93% 29.77 in 6.2 mi NE 4.6 mph - N/A   Scattered Clouds
1:30 AM 46.4 °F 44.3 °F 46.4 °F 100% 29.77 in 6.2 mi NNE 4.6 mph - N/A Rain Light Rain
2:00 AM 46.4 °F 45.2 °F 44.6 °F 93% 29.77 in 6.2 mi NNE 3.5 mph - N/A Rain Light Rain
2:30 AM 48.2 °F - 46.4 °F 93% 29.77 in 6.2 mi NE 8.1 mph - N/A   Mostly Cloudy
3:00 AM 48 °F - 46 °F 92% 29.77 in 12 mi NE 10.4 mph - - Rain Drizzle
3:00 AM 48.2 °F - 46.4 °F 93% 29.74 in 6.2 mi NE 6.9 mph - N/A   Mostly Cloudy
3:30 AM 46.4 °F 41.9 °F 44.6 °F 93% 29.74 in 6.2 mi NNE 9.2 mph - N/A   Scattered Clouds
4:00 AM 48 °F - 46 °F 88% 29.74 in 11 mi NNE 9.2 mph - - Rain Light Rain
4:00 AM 46.4 °F 41.9 °F 44.6 °F 93% 29.71 in 6.2 mi North 9.2 mph - N/A   Partly Cloudy
4:30 AM 46.4 °F 44.3 °F 44.6 °F 93% 29.71 in 6.2 mi NNW 4.6 mph - N/A   Partly Cloudy
5:00 AM 46.4 °F 44.3 °F 42.8 °F 87% 29.74 in 6.2 mi NW 4.6 mph - N/A   Partly Cloudy
5:30 AM 44.6 °F 43.1 °F 42.8 °F 93% 29.71 in 6.2 mi North 3.5 mph - N/A   Partly Cloudy
6:00 AM 46 °F - 43 °F 84% 29.74 in 14 mi North 6.9 mph - -  
6:00 AM 44.6 °F 42.2 °F 42.8 °F 93% 29.74 in 6.2 mi NW 4.6 mph - N/A   Partly Cloudy
6:30 AM 44.6 °F 41.4 °F 41.0 °F 87% 29.71 in 6.2 mi NW 5.8 mph - N/A   Partly Cloudy
7:00 AM 46 °F - 42 °F 79% 29.74 in 17 mi North 6.9 mph - -   Partly Cloudy
7:00 AM 46.4 °F 44.3 °F 41.0 °F 81% 29.71 in 6.2 mi NNW 4.6 mph - N/A   Partly Cloudy
7:30 AM 46.4 °F 45.2 °F 41.0 °F 81% 29.74 in 5.6 mi WSW 3.5 mph - N/A Rain Light Rain
8:00 AM 46 °F - 42 °F 83% 29.76 in 4 mi NNW 2.3 mph - - Rain Rain
8:00 AM 44.6 °F 42.2 °F 42.8 °F 93% 29.74 in 4.3 mi North 4.6 mph - N/A Rain Rain
8:30 AM 44.6 °F 38.4 °F 42.8 °F 93% 29.74 in 5.6 mi ENE 12.7 mph - N/A Rain Rain
9:00 AM 47 °F - 44 °F 86% 29.77 in 6 mi East 9.2 mph - - Rain Rain
9:00 AM 46.4 °F 41.9 °F 44.6 °F 93% 29.77 in 4.3 mi East 9.2 mph - N/A Rain Rain
9:30 AM 44.6 °F 40.7 °F 42.8 °F 93% 29.77 in 5.0 mi ENE 6.9 mph - N/A Rain Light Rain
10:00 AM 46.4 °F 40.4 °F 44.6 °F 93% 29.77 in 6.2 mi East 13.8 mph - N/A Rain Light Rain
10:30 AM 46.4 °F 43.5 °F 42.8 °F 87% 29.77 in 6.2 mi North 5.8 mph - N/A Rain Light Rain
11:00 AM 48 °F - 44 °F 83% 29.77 in 19 mi North 6.9 mph - - Rain Light Drizzle
11:00 AM 46.4 °F 42.9 °F 44.6 °F 93% 29.77 in 6.2 mi NNW 6.9 mph - N/A   Scattered Clouds
11:30 AM 48.2 °F - 44.6 °F 87% 29.74 in 6.2 mi NNW 8.1 mph - N/A   Mostly Cloudy
12:00 PM 50 °F - 45 °F 76% 29.76 in 15 mi NNE 5.8 mph - -   Clear
12:00 PM 50.0 °F - 44.6 °F 82% 29.74 in 6.2 mi NNE 4.6 mph - N/A   Mostly Cloudy
12:30 PM 50.0 °F - 44.6 °F 82% 29.74 in 6.2 mi East 10.4 mph - N/A   Mostly Cloudy
1:00 PM 51 °F - 44 °F 70% 29.75 in 19 mi East 12.7 mph - -   Partly Cloudy
1:00 PM 50.0 °F - 42.8 °F 76% 29.74 in 6.2 mi ENE 11.5 mph - N/A   Mostly Cloudy
1:30 PM 50.0 °F - 41.0 °F 71% 29.74 in 6.2 mi ENE 9.2 mph - N/A   Mostly Cloudy
2:00 PM 52 °F - 43 °F 63% 29.73 in 19 mi East 11.5 mph - -  
2:00 PM 51.8 °F - 41.0 °F 67% 29.71 in 6.2 mi ENE 10.4 mph - N/A   Mostly Cloudy
2:30 PM 51.8 °F - 41.0 °F 67% 29.71 in 6.2 mi ENE 10.4 mph - N/A   Mostly Cloudy
3:00 PM 52 °F - 42 °F 58% 29.71 in 19 mi East 10.4 mph - -  
3:00 PM 51.8 °F - 41.0 °F 67% 29.71 in 6.2 mi East 9.2 mph - N/A   Mostly Cloudy
3:30 PM 51.8 °F - 39.2 °F 62% 29.68 in 6.2 mi ENE 9.2 mph - N/A   Mostly Cloudy
4:00 PM 52 °F - 41 °F 55% 29.70 in 16 mi East 6.9 mph - -   Mostly Cloudy
4:00 PM 51.8 °F - 39.2 °F 62% 29.68 in 6.2 mi East 5.8 mph - N/A   Mostly Cloudy
4:30 PM 51.8 °F - 39.2 °F 62% 29.68 in 6.2 mi East 4.6 mph - N/A   Scattered Clouds
5:00 PM 52 °F - 39 °F 51% 29.70 in 19 mi East 3.5 mph - -  
5:00 PM 51.8 °F - 39.2 °F 62% 29.68 in 6.2 mi Variable 1.2 mph - N/A   Partly Cloudy
5:30 PM 51.8 °F - 39.2 °F 62% 29.68 in 6.2 mi Calm Calm - N/A   Partly Cloudy
6:00 PM 51 °F - 39 °F 52% 29.71 in 19 mi East 1.2 mph - -  
6:00 PM 51.8 °F - 37.4 °F 58% 29.68 in 6.2 mi Variable 2.3 mph - N/A   Scattered Clouds
6:30 PM 51.8 °F - 37.4 °F 58% 29.71 in 6.2 mi East 5.8 mph - N/A   Mostly Cloudy
7:00 PM 50 °F - 43 °F 70% 29.73 in 16 mi NNW 4.6 mph - -   Mostly Cloudy
7:00 PM 50.0 °F - 42.8 °F 76% 29.71 in 6.2 mi NNW 5.8 mph - N/A   Mostly Cloudy
7:30 PM 48.2 °F - 42.8 °F 82% 29.74 in 6.2 mi Variable 1.2 mph - N/A   Mostly Cloudy
8:00 PM 48.2 °F - 41.0 °F 76% 29.74 in 6.2 mi NW 6.9 mph - N/A   Mostly Cloudy
8:30 PM 48.2 °F - 41.0 °F 76% 29.74 in 6.2 mi NW 9.2 mph - N/A   Partly Cloudy
9:00 PM 47 °F - 40 °F 69% 29.76 in 19 mi NW 11.5 mph - - Rain Light Rain
9:00 PM 46.4 °F 41.1 °F 39.2 °F 76% 29.74 in 6.2 mi WNW 11.5 mph - N/A   Partly Cloudy
9:30 PM 46.4 °F 41.5 °F 37.4 °F 71% 29.74 in 6.2 mi NW 10.4 mph - N/A   Mostly Cloudy
10:00 PM 46 °F - 36 °F 59% 29.77 in 19 mi NNW 9.2 mph - -   Overcast
10:00 PM 46.4 °F 41.5 °F 35.6 °F 66% 29.74 in 6.2 mi WNW 10.4 mph - N/A   Mostly Cloudy
10:30 PM 44.6 °F 41.4 °F 33.8 °F 66% 29.77 in 6.2 mi NW 5.8 mph - N/A   Mostly Cloudy
11:00 PM 46 °F - 35 °F 53% 29.77 in 19 mi NW 8.1 mph - -   Clear
11:00 PM 44.6 °F 40.2 °F 33.8 °F 66% 29.77 in 6.2 mi WNW 8.1 mph - N/A   Mostly Cloudy
11:30 PM 44.6 °F 40.7 °F 33.8 °F 66% 29.77 in 6.2 mi NW 6.9 mph - N/A Rain Light Rain